UR6770 UKFF-UGTB

Flight info

Callsign UR6770
Flight time N/A
Altitude 39000
Route TISOM B147 BANUT/N0438F390 L850 TAGAR DCT GIMUR
Aircraft IL76/H-SDFGHIM1RTUWXY/LB1

Departure

Time 2026-04-25 19:09
Airport Simferopol International Airport (UKFF)

Arrival

Time N/A
Airport Tbilisi International Airport (UGTB)
Time Latitude Longitude Altitude Speed Heading
2026-04-25 18:55 45.03433 33.97300 609 ft 0 kts 14°
2026-04-25 19:05 45.03490 33.97274 610 ft 10 kts 288°
2026-04-25 19:05 45.03520 33.97145 607 ft 17 kts 304°
2026-04-25 19:06 45.03592 33.97000 605 ft 22 kts 333°
2026-04-25 19:06 45.03762 33.96881 603 ft 0 kts 11°
2026-04-25 19:06 45.03774 33.96885 602 ft 4 kts 11°
2026-04-25 19:07 45.03934 33.96944 602 ft 49 kts 14°
2026-04-25 19:07 45.04441 33.97111 597 ft 98 kts 13°
2026-04-25 19:08 45.06235 33.97747 640 ft 154 kts 19°
2026-04-25 19:08 45.07303 33.98113 781 ft 159 kts 12°
2026-04-25 19:09 45.10120 33.96397 1092 ft 180 kts 282°
2026-04-25 19:09 45.10335 33.95247 1210 ft 183 kts 281°
2026-04-25 19:09 45.10135 33.91462 1260 ft 160 kts 231°
2026-04-25 19:10 45.09261 33.90555 1161 ft 154 kts 197°
2026-04-25 19:10 45.08215 33.90151 1069 ft 151 kts 195°
2026-04-25 19:10 45.07197 33.89790 1091 ft 159 kts 193°
2026-04-25 19:10 45.06141 33.89471 1191 ft 147 kts 191°
2026-04-25 19:11 45.05090 33.89196 1146 ft 159 kts 190°
2026-04-25 19:11 45.04036 33.88982 1157 ft 147 kts 188°
2026-04-25 19:11 45.03050 33.88746 1047 ft 139 kts 190°
2026-04-25 19:11 45.02083 33.88465 1026 ft 144 kts 196°
2026-04-25 19:12 45.01124 33.88060 1137 ft 134 kts 189°
2026-04-25 19:12 45.00203 33.88234 1164 ft 139 kts 157°
2026-04-25 19:12 44.99464 33.89144 1215 ft 143 kts 129°
2026-04-25 19:12 44.99004 33.90406 1206 ft 147 kts 112°
2026-04-25 19:13 44.98848 33.91839 1231 ft 150 kts 89°
2026-04-25 19:13 44.99305 33.93177 1198 ft 157 kts 51°
2026-04-25 19:13 45.00022 33.94346 1139 ft 156 kts 52°
2026-04-25 19:13 45.00818 33.95399 1036 ft 158 kts 39°
2026-04-25 19:14 45.01744 33.96142 843 ft 154 kts 16°
2026-04-25 19:14 45.02089 33.96291 803 ft 153 kts 13°
2026-04-25 19:14 45.03857 33.96910 617 ft 156 kts 14°
2026-04-25 19:14 45.04790 33.97231 596 ft 99 kts 16°
2026-04-25 19:15 45.05351 33.97416 591 ft 70 kts 14°
2026-04-25 19:15 45.05712 33.97560 589 ft 40 kts 32°
2026-04-25 19:15 45.05880 33.97761 591 ft 20 kts 49°
2026-04-25 19:15 45.05887 33.97895 593 ft 8 kts 131°
2026-04-25 19:16 45.05862 33.97911 593 ft 3 kts 180°
2026-04-25 19:16 45.05819 33.97904 593 ft 8 kts 190°
2026-04-25 19:16 45.05743 33.97886 594 ft 13 kts 190°
2026-04-25 19:16 45.05635 33.97857 595 ft 18 kts 190°
2026-04-25 19:17 45.05494 33.97827 595 ft 21 kts 189°
2026-04-25 19:17 45.05352 33.97780 594 ft 21 kts 198°
2026-04-25 19:17 45.05194 33.97723 596 ft 25 kts 192°
2026-04-25 19:17 45.05025 33.97670 598 ft 24 kts 193°
2026-04-25 19:18 45.04860 33.97612 600 ft 26 kts 194°
2026-04-25 19:18 45.04671 33.97547 602 ft 29 kts 194°
2026-04-25 19:18 45.04460 33.97475 605 ft 33 kts 193°
2026-04-25 19:18 45.04221 33.97395 606 ft 37 kts 193°
2026-04-25 19:19 45.03962 33.97304 608 ft 34 kts 194°
2026-04-25 19:19 45.03745 33.97231 609 ft 29 kts 193°
2026-04-25 19:19 45.03595 33.97181 608 ft 18 kts 193°
2026-04-25 19:19 45.03543 33.97103 607 ft 18 kts 274°
2026-04-25 19:20 45.03574 33.97011 605 ft 0 kts 334°